When you browse on this site, cookies collect data to enhance your experience and personalize the content and advertising you see.
Visit our Privacy Policy to learn more. By continuing to use the site, you agree to this use of cookies and data.
  • In Hungary
  • List of Countries
  • For 7 days
  • Water Temperature
  • Satellite Maps
  • Weather Map
  • News
  • Weather Widgets
  • user-avatar
    Login

    Hourly Weather Saarbrucken

    Today, 19 April, Friday

    Time Temperature Precipitation Wind Pressure Humidity
    00:00 +11°C° 0 mm 4 mps 746 mmHg 75%
    01:00 +10°C° 0 mm 4 mps 746 mmHg 76%
    02:00 +10°C° 0 mm 4 mps 746 mmHg 77%
    03:00 +8°C° 0 mm 4 mps 746 mmHg 78%
    04:00 +8°C° 0 mm 4 mps 746 mmHg 78%
    05:00 +8°C° 0 mm 4 mps 747 mmHg 78%
    06:00 +10°C° 0 mm 3 mps 747 mmHg 78%
    07:00 +11°C° 0 mm 3 mps 747 mmHg 74%
    08:00 +13°C° 0 mm 3 mps 747 mmHg 70%
    09:00 +16°C° 0 mm 3 mps 748 mmHg 66%
    10:00 +18°C° 0 mm 3 mps 748 mmHg 62%
    11:00 +19°C° 0 mm 3 mps 748 mmHg 58%
    12:00 +20°C° 0 mm 3 mps 748 mmHg 55%
    13:00 +21°C° 0 mm 3 mps 748 mmHg 54%
    14:00 +21°C° 0 mm 3 mps 748 mmHg 53%
    15:00 +21°C° 0 mm 3 mps 747 mmHg 53%
    16:00 +20°C° 0 mm 2 mps 747 mmHg 59%
    17:00 +19°C° 0 mm 2 mps 747 mmHg 65%
    18:00 +17°C° 0 mm 2 mps 747 mmHg 71%
    19:00 +16°C° 0.1 mm 2 mps 747 mmHg 73%
    20:00 +15°C° 0.1 mm 2 mps 748 mmHg 76%
    21:00 +13°C° 0.1 mm 2 mps 748 mmHg 78%
    22:00 +13°C° 0 mm 2 mps 748 mmHg 77%
    23:00 +12°C° 0 mm 2 mps 748 mmHg 75%

    Tomorrow, 20 April, Saturday

    Time Temperature Precipitation Wind Pressure Humidity
    00:00 +12°C° 0 mm 2 mps 748 mmHg 74%
    01:00 +10°C° 0 mm 3 mps 748 mmHg 75%
    02:00 +10°C° 0 mm 3 mps 748 mmHg 77%
    03:00 +9°C° 0 mm 3 mps 748 mmHg 79%
    04:00 +9°C° 0 mm 3 mps 748 mmHg 79%
    05:00 +10°C° 0 mm 3 mps 748 mmHg 80%
    06:00 +10°C° 0 mm 3 mps 748 mmHg 81%
    07:00 +12°C° 0 mm 4 mps 748 mmHg 74%
    08:00 +14°C° 0 mm 4 mps 748 mmHg 68%
    09:00 +17°C° 0 mm 4 mps 748 mmHg 62%
    10:00 +19°C° 0 mm 4 mps 748 mmHg 58%
    11:00 +20°C° 0 mm 4 mps 747 mmHg 55%
    12:00 +21°C° 0 mm 4 mps 747 mmHg 52%
    13:00 +21°C° 0 mm 4 mps 747 mmHg 50%
    14:00 +21°C° 0 mm 4 mps 746 mmHg 49%
    15:00 +22°C° 0 mm 4 mps 746 mmHg 47%
    16:00 +20°C° 0 mm 4 mps 746 mmHg 52%
    17:00 +18°C° 0 mm 3 mps 745 mmHg 56%
    18:00 +16°C° 0 mm 3 mps 745 mmHg 61%
    19:00 +14°C° 0 mm 3 mps 745 mmHg 59%
    20:00 +13°C° 0 mm 3 mps 745 mmHg 58%
    21:00 +12°C° 0 mm 3 mps 745 mmHg 56%
    22:00 +12°C° 0 mm 3 mps 745 mmHg 61%
    23:00 +11°C° 0 mm 3 mps 745 mmHg 66%

    Day after tomorrow, 21 April, Sunday

    Time Temperature Precipitation Wind Pressure Humidity
    00:00 +11°C° 0 mm 4 mps 745 mmHg 71%
    01:00 +11°C° 0 mm 4 mps 745 mmHg 74%
    02:00 +10°C° 0 mm 4 mps 744 mmHg 77%
    03:00 +10°C° 0 mm 4 mps 744 mmHg 80%
    04:00 +10°C° 0 mm 4 mps 744 mmHg 79%
    05:00 +10°C° 0 mm 3 mps 744 mmHg 79%
    06:00 +10°C° 0 mm 3 mps 743 mmHg 78%
    07:00 +13°C° 0 mm 4 mps 743 mmHg 71%
    08:00 +15°C° 0 mm 4 mps 743 mmHg 63%
    09:00 +18°C° 0 mm 4 mps 743 mmHg 55%
    10:00 +19°C° 0 mm 4 mps 742 mmHg 51%
    11:00 +20°C° 0 mm 4 mps 742 mmHg 47%
    12:00 +21°C° 0 mm 4 mps 741 mmHg 43%
    13:00 +21°C° 0 mm 4 mps 741 mmHg 44%
    14:00 +21°C° 0 mm 4 mps 740 mmHg 45%
    15:00 +21°C° 0 mm 4 mps 740 mmHg 45%
    16:00 +20°C° 0 mm 3 mps 739 mmHg 52%
    17:00 +18°C° 0 mm 3 mps 739 mmHg 58%
    18:00 +16°C° 0 mm 3 mps 738 mmHg 64%
    19:00 +14°C° 0 mm 3 mps 738 mmHg 65%
    20:00 +14°C° 0 mm 2 mps 738 mmHg 66%
    21:00 +13°C° 0 mm 2 mps 738 mmHg 67%
    22:00 +12°C° 0 mm 2 mps 738 mmHg 68%
    23:00 +12°C° 0 mm 2 mps 738 mmHg 69%

    22 April, Monday

    Time Temperature Precipitation Wind Pressure Humidity
    00:00 +10°C° 0 mm 2 mps 738 mmHg 70%
    01:00 +10°C° 0 mm 2 mps 737 mmHg 73%
    02:00 +9°C° 0 mm 3 mps 737 mmHg 76%
    03:00 +9°C° 0 mm 3 mps 736 mmHg 78%
    04:00 +9°C° 0 mm 3 mps 736 mmHg 78%
    05:00 +10°C° 0 mm 3 mps 736 mmHg 78%
    06:00 +10°C° 0 mm 3 mps 736 mmHg 77%
    07:00 +12°C° 0 mm 3 mps 736 mmHg 71%
    08:00 +14°C° 0 mm 3 mps 735 mmHg 65%
    09:00 +17°C° 0 mm 4 mps 735 mmHg 60%
    10:00 +18°C° 0 mm 4 mps 734 mmHg 56%
    11:00 +19°C° 0 mm 4 mps 734 mmHg 53%
    12:00 +20°C° 0 mm 4 mps 733 mmHg 49%
    13:00 +21°C° 0 mm 4 mps 733 mmHg 49%
    14:00 +21°C° 0 mm 4 mps 732 mmHg 49%
    15:00 +21°C° 0 mm 4 mps 731 mmHg 49%
    16:00 +20°C° 0 mm 3 mps 731 mmHg 54%
    17:00 +18°C° 0 mm 3 mps 731 mmHg 60%
    18:00 +17°C° 0 mm 2 mps 730 mmHg 66%
    19:00 +16°C° 0 mm 2 mps 730 mmHg 67%
    20:00 +14°C° 0 mm 2 mps 730 mmHg 69%
    21:00 +13°C° 0 mm 2 mps 730 mmHg 70%
    22:00 +12°C° 0 mm 3 mps 730 mmHg 71%
    23:00 +12°C° 0 mm 3 mps 729 mmHg 72%

    23 April, Tuesday

    Time Temperature Precipitation Wind Pressure Humidity
    00:00 +11°C° 0 mm 3 mps 729 mmHg 74%
    01:00 +11°C° 0 mm 3 mps 729 mmHg 77%
    02:00 +10°C° 0 mm 2 mps 729 mmHg 81%
    03:00 +9°C° 0 mm 2 mps 729 mmHg 84%
    04:00 +10°C° 0 mm 2 mps 729 mmHg 83%
    05:00 +10°C° 0 mm 2 mps 729 mmHg 82%
    06:00 +12°C° 0 mm 2 mps 729 mmHg 82%
    07:00 +14°C° 0 mm 2 mps 729 mmHg 76%
    08:00 +16°C° 0 mm 2 mps 729 mmHg 70%
    09:00 +18°C° 0 mm 2 mps 729 mmHg 64%
    10:00 +19°C° 0 mm 2 mps 729 mmHg 60%
    11:00 +20°C° 0 mm 2 mps 729 mmHg 56%
    12:00 +23°C° 0 mm 1 mps 729 mmHg 51%
    13:00 +23°C° 0 mm 1 mps 729 mmHg 50%
    14:00 +23°C° 0 mm 1 mps 729 mmHg 50%
    15:00 +23°C° 0 mm 1 mps 729 mmHg 49%
    16:00 +22°C° 0 mm 1 mps 729 mmHg 55%
    17:00 +20°C° 0 mm 1 mps 729 mmHg 61%
    18:00 +19°C° 0 mm 1 mps 729 mmHg 67%
    19:00 +18°C° 0 mm 1 mps 729 mmHg 69%
    20:00 +15°C° 0 mm 0 mps 730 mmHg 71%
    21:00 +14°C° 0 mm 0 mps 730 mmHg 73%
    22:00 +13°C° 0 mm 0 mps 731 mmHg 75%
    23:00 +13°C° 0 mm 0 mps 731 mmHg 76%

    24 April, Wednesday

    Time Temperature Precipitation Wind Pressure Humidity
    00:00 +12°C° 0 mm 0 mps 731 mmHg 78%
    01:00 +13°C° 0 mm 1 mps 732 mmHg 80%
    02:00 +13°C° 0 mm 1 mps 732 mmHg 83%
    03:00 +12°C° 0 mm 1 mps 733 mmHg 85%
    04:00 +13°C° 0 mm 2 mps 733 mmHg 85%
    05:00 +13°C° 0 mm 2 mps 734 mmHg 85%
    06:00 +14°C° 0 mm 2 mps 734 mmHg 85%
    07:00 +14°C° 0 mm 3 mps 735 mmHg 78%
    08:00 +17°C° 0 mm 4 mps 735 mmHg 71%
    09:00 +19°C° 0 mm 5 mps 735 mmHg 64%
    10:00 +20°C° 0 mm 5 mps 736 mmHg 61%
    11:00 +21°C° 0 mm 4 mps 736 mmHg 57%
    12:00 +22°C° 0 mm 4 mps 736 mmHg 54%
    13:00 +23°C° 0 mm 4 mps 736 mmHg 54%
    14:00 +24°C° 0 mm 3 mps 736 mmHg 53%
    15:00 +24°C° 0 mm 3 mps 735 mmHg 52%
    16:00 +23°C° 0 mm 2 mps 735 mmHg 58%
    17:00 +21°C° 0 mm 2 mps 735 mmHg 63%
    18:00 +20°C° 0 mm 2 mps 735 mmHg 69%
    19:00 +19°C° 0 mm 2 mps 736 mmHg 69%
    20:00 +18°C° 0 mm 3 mps 736 mmHg 68%
    21:00 +17°C° 0 mm 3 mps 737 mmHg 68%
    22:00 +16°C° 0.1 mm 2 mps 737 mmHg 73%
    23:00 +16°C° 0.1 mm 2 mps 737 mmHg 78%
    Show more